Preview of NWS' New Version of Forecast
This preview is not operational and should not be used for support decisions.

Regional Weather Roundup (RWR)

Issued by National Weather Service (NWS)

                            
000
ASUS45 KBOI 161810
RWRID 

IDAHO REGIONAL WEATHER ROUNDUP
NATIONAL WEATHER SERVICE BOISE ID
1200 PM MDT MON SEP 16 2019

NOTE: "FAIR" INDICATES FEW OR NO CLOUDS BELOW 12000 FEET
WITH NO SIGNIFICANT WEATHER AND/OR OBSTRUCTIONS TO VISIBILITY

IDZ012-014-161900-
SOUTHWEST IDAHO

  
CITY           SKY/WX    TMP DP  RH WIND       PRES   REMARKS
BOISE          CLOUDY    68  44  42 CALM      29.75F                  
CALDWELL       CLOUDY    65  46  50 NW3       29.75F                  
MOUNTAIN HOME  CLOUDY    73  37  26 SE8       29.75F                  
$$

IDZ016-017-161900-
SOUTHCENTRAL IDAHO

  
CITY           SKY/WX    TMP DP  RH WIND       PRES   REMARKS
BURLEY         MOSUNNY   75  29  18 NW6       29.80F                  
JEROME         SUNNY     75  37  25 NW6       29.82F                  
TWIN FALLS     SUNNY     76  29  17 N8        29.82F                  
$$

IDZ019>023-161900-
SOUTHEAST IDAHO

  
CITY           SKY/WX    TMP DP  RH WIND       PRES   REMARKS
IDAHO FALLS    CLOUDY    75  40  28 S10       29.86F                  
POCATELLO      CLOUDY    79  41  25 S22G32    29.83F                  
REXBURG        PTSUNNY   76  41  28 S9        29.87F                  
$$

IDZ006-010-011-018-031-032-161900-
CENTRAL IDAHO MOUNTAINS

  
CITY           SKY/WX    TMP DP  RH WIND       PRES   REMARKS
MCCALL         CLOUDY    61  34  36 CALM      29.81S                  
HAILEY         SUNNY     70  37  30 E9        29.88F                  
STANLEY          N/A     69  15  12 VRB7G18   29.89F                  
SALMON         MOSUNNY   71  34  25 NW5       29.74F                  
CHALLIS        SUNNY     67  37  33 NE3       29.79F                  
$$

IDZ002-004-006-007-026-161900-
NORTHERN IDAHO

  
CITY           SKY/WX    TMP DP  RH WIND       PRES   REMARKS
LEWISTON       CLOUDY    63  45  51 W14       29.79S                  
LOWELL           N/A     63  49  60 CALM      29.74F                  
COEUR D'ALENE  MOSUNNY   61  45  55 CALM      29.79F                  
MULLAN PASS    MOSUNNY   53  42  66 CALM      29.84S                  
$$